Powrót do katalogu

STARONE C3

AktywnyŁącznośćGEO
NORAD 38991·PAYLOAD·🇧🇷 Brazil

Wystrzelony Nov 10, 2012 z Guiana Space Centre

Loading…

TLE

ŚwieżeSource: Space-Track

Epoka: Sep 14, 2026, 11:44 UTC

1 38991U 12062A   26257.48903275 -.00000257  00000-0  00000-0 0  9996
2 38991   0.0185  99.1597 0002093  69.4046 285.9516  1.00269997 50654

Śledź STARONE C3 w czasie rzeczywistym z AllMySat

Download on the App Store